Snowfall_Accumulation
nan nan nan nan nan nan nan nan nan nan nan nan nan nan nan nan nan 0.0 0.0 0.0 0.0 0.1 0.0 0.0 0.0 0.0 0.0 0.0 0.1 0.0 0.1 0.1 0.2 0.3 0.4 0.4 1.4 0.2 0.1 0.0 0.0 0.1 0.6 1.9 0.6 0.8 1.4 0.0 0.0 0.0 0.0 0.0 0.0 0.0
nan nan nan nan nan nan nan nan nan nan nan nan nan nan nan nan nan nan 0.0 0.0 0.0 0.0 0.0 0.0 0.0 0.0 0.0 0.0 0.0 0.0 0.0 0.0 0.0 0.0 0.3 0.3 1.3 2.3 0.0 0.6 0.0 0.3 0.1 0.2 0.0 0.2 0.0 0.0 0.0 0.0 0.0 0.0 0.0 0.0
nan nan nan nan nan nan nan nan nan nan nan nan nan nan nan nan nan nan 0.0 0.0 0.0 0.0 0.0 0.0 0.0 0.0 0.0 0.0 0.0 0.0 0.0 0.0 0.0 0.0 0.0 0.2 0.2 0.1 1.2 0.2 0.1 0.0 0.0 0.1 0.0 0.0 0.0 0.0 0.0 0.0 0.0 0.0 0.0 0.0
nan nan nan nan nan nan nan nan nan nan nan nan nan nan nan nan nan nan 0.0 0.0 0.0 0.0 1.0 0.1 0.0 0.0 0.0 0.0 0.0 0.0 0.0 0.0 0.0 0.0 0.2 0.4 1.0 0.0 0.3 0.1 0.1 0.0 0.0 0.0 0.0 0.0 0.0 0.0 0.0 0.0 0.0 0.0 0.0 0.0
nan nan nan nan nan nan nan nan nan nan nan nan nan nan nan nan nan nan 0.0 0.0 0.0 0.1 0.5 0.1 0.0 0.0 0.0 0.0 0.0 0.0 0.0 0.0 0.0 0.1 1.3 0.5 0.0 0.2 0.2 0.1 0.2 0.0 0.0 0.2 0.1 0.0 0.0 0.0 0.0 0.0 0.0 0.0 0.0 0.0
nan nan nan nan nan nan nan nan nan nan nan nan nan nan nan nan nan 0.0 0.0 0.0 0.0 0.0 0.1 0.6 0.0 0.0 0.0 0.0 0.0 0.0 0.0 0.0 0.0 0.0 0.4 0.1 0.0 0.0 1.8 0.2 0.0 0.0 0.0 0.0 0.0 0.0 0.0 0.0 0.0 0.0 0.0 0.0 0.0 0.0
nan nan nan nan nan nan nan nan nan nan nan nan nan nan nan nan 0.0 0.0 0.0 0.0 nan 0.0 0.1 0.5 0.3 0.0 0.0 0.0 0.0 0.0 0.0 0.0 0.0 0.0 0.2 0.1 0.1 0.0 0.8 0.4 0.0 0.0 0.0 0.0 0.0 0.0 0.0 0.0 0.0 0.0 0.0 0.0 0.0 0.0
nan nan nan nan nan nan nan nan nan nan nan nan nan nan nan nan nan 0.0 0.0 nan nan 0.0 0.0 0.8 0.8 0.3 0.0 0.2 0.3 0.0 0.1 0.1 0.0 0.0 0.2 0.2 0.1 0.3 0.5 0.0 0.0 0.0 0.0 0.0 0.0 0.0 0.0 0.0 0.0 0.0 0.0 0.0 0.0 0.0
nan nan nan nan nan nan nan nan nan nan nan nan nan nan 0.0 0.0 0.2 0.0 nan nan 0.0 0.0 0.2 2.7 1.2 3.0 0.0 0.1 0.3 0.2 0.0 0.6 0.0 0.6 0.3 0.1 0.3 1.3 0.5 0.2 0.0 0.0 0.0 0.0 0.0 0.0 0.0 0.0 0.0 0.0 0.0 0.0 0.0 0.0
nan nan nan nan nan nan nan nan nan nan nan nan 0.0 0.0 0.3 0.1 nan nan 0.0 0.2 0.1 0.1 0.1 0.8 0.1 1.0 0.0 0.4 0.6 0.5 0.4 0.7 1.2 0.7 0.0 0.9 1.7 0.4 0.4 0.1 0.0 0.0 0.0 0.0 0.0 0.0 0.0 0.0 0.0 0.0 0.0 0.0 0.0 0.0
nan nan nan nan nan nan nan nan nan nan nan 0.0 0.1 0.2 0.0 nan 0.0 0.1 0.5 0.6 0.2 0.6 0.1 0.2 0.1 0.4 0.1 1.0 1.3 0.5 2.3 1.2 2.6 0.5 1.1 1.1 0.9 0.9 0.8 0.5 0.2 0.0 0.0 0.0 0.0 0.0 0.0 0.0 0.0 0.0 0.0 0.0 0.0 0.0
nan nan nan nan nan nan nan nan nan 0.0 0.0 0.0 0.0 0.0 0.0 0.0 0.4 2.2 3.2 1.6 0.4 0.3 0.3 0.6 0.3 0.1 0.5 0.3 0.3 1.4 2.0 3.1 3.7 0.2 3.5 2.6 0.8 0.0 0.0 0.0 0.1 0.2 0.0 0.0 0.0 0.0 0.0 0.0 0.0 0.0 0.0 0.0 0.0 0.0
nan nan nan nan nan nan nan nan nan nan nan 0.0 0.1 0.1 0.2 3.4 32.5 6.9 4.9 2.7 5.3 1.0 1.6 1.2 4.7 0.4 0.4 0.1 1.5 1.3 6.4 5.1 0.4 7.6 3.3 2.6 0.4 0.1 0.1 0.0 0.1 0.0 0.0 0.0 0.0 0.0 0.1 0.4 0.2 0.4 1.3 2.2 3.7 4.7
nan nan nan nan nan nan nan nan nan 0.0 0.0 0.3 1.3 36.8 10.1 9.0 4.8 4.9 2.3 2.3 2.1 1.8 1.3 0.6 1.4 0.9 1.5 2.2 2.9 7.8 2.4 1.6 7.5 9.1 4.9 1.5 0.7 0.8 0.6 0.6 0.4 1.1 1.3 1.5 2.6 3.0 3.1 3.2 5.3 6.4 7.6 8.4 7.0 5.1
nan nan nan nan nan nan nan nan nan 0.0 0.1 2.5 2.3 27.0 7.9 4.3 3.7 3.7 3.0 2.1 1.2 0.8 0.9 1.1 1.1 0.2 3.6 6.9 4.2 3.7 8.0 8.0 4.4 5.0 3.8 2.2 1.2 0.8 1.2 1.2 1.2 1.5 3.0 3.2 3.4 4.1 5.8 4.8 3.4 4.1 4.4 3.9 2.6 5.2
nan nan 0.0 nan nan nan nan nan 0.0 0.0 1.0 1.8 2.1 5.4 3.9 7.3 12.9 11.0 7.3 6.1 0.8 1.1 0.8 1.4 3.8 5.4 7.0 4.8 3.6 6.1 2.6 3.8 6.0 3.5 2.2 1.4 1.7 1.6 1.6 1.8 2.6 2.8 3.1 3.3 3.1 2.8 3.1 3.5 3.0 2.8 2.2 2.3 6.1 4.9
nan 0.0 nan nan nan nan nan 0.0 0.2 0.4 2.3 1.5 12.3 5.4 7.8 7.5 10.6 8.5 5.5 3.2 1.0 3.9 9.2 2.9 4.8 4.2 1.8 4.3 2.3 2.2 9.8 6.7 5.1 3.7 3.0 1.7 1.9 2.6 2.7 2.9 4.6 3.7 3.2 2.6 2.4 1.8 1.9 1.6 1.2 0.7 1.3 1.9 0.9 0.9
0.0 0.0 nan nan nan nan 0.0 0.0 0.7 1.0 1.9 4.8 11.9 10.4 6.9 8.6 9.5 7.1 4.8 2.8 1.9 2.3 2.2 2.7 1.0 2.5 9.2 4.1 6.6 5.5 5.0 4.1 3.3 4.6 5.1 4.1 3.4 3.6 3.7 4.4 4.2 3.2 2.6 3.1 2.8 3.0 2.5 2.5 1.3 2.4 1.1 0.7 0.5 0.4
0.0 0.0 nan nan 0.0 0.2 0.6 0.5 0.2 2.5 6.9 4.9 5.1 4.3 4.9 8.6 5.4 4.7 5.5 3.8 2.3 1.0 2.3 4.1 6.8 6.6 8.7 5.4 8.0 7.2 7.5 5.0 5.5 6.9 6.3 5.7 5.2 5.4 6.1 5.5 4.6 4.0 3.0 3.4 2.4 2.8 2.5 1.6 1.8 1.4 1.3 1.0 1.7 1.5
nan nan nan nan nan 0.3 0.1 1.4 0.2 0.4 3.7 5.4 3.7 3.5 3.5 5.5 4.0 8.0 5.5 2.1 1.3 2.2 3.9 4.9 8.4 9.9 8.6 7.9 7.1 6.9 7.0 4.5 3.9 4.3 6.1 6.6 7.0 4.4 5.6 4.4 4.7 4.1 3.0 2.3 2.9 1.2 1.9 1.7 1.3 1.4 1.2 1.2 3.0 3.9
nan nan nan 0.0 0.3 0.0 0.4 0.6 0.3 0.5 0.9 2.2 1.4 0.6 4.7 1.7 3.6 5.7 3.7 0.7 7.3 5.1 6.6 8.0 9.1 7.0 6.8 7.3 5.4 4.7 5.0 3.8 4.5 2.9 4.6 5.6 6.7 4.3 4.4 5.2 3.8 3.5 2.9 3.5 5.0 4.2 2.3 3.5 2.0 1.5 9.6 11.3 7.3 5.6
0.0 nan 0.3 0.3 0.8 0.6 1.5 0.3 0.5 0.7 1.1 1.3 1.1 0.8 5.0 13.1 12.4 7.0 1.1 4.6 4.5 6.1 5.3 5.5 6.0 5.3 4.5 5.0 6.7 4.7 6.2 3.4 3.7 2.8 1.7 1.8 4.4 4.1 4.7 5.4 3.4 5.2 4.3 5.3 3.4 5.3 3.2 1.8 2.8 3.4 6.9 10.6 4.7 5.7
nan 0.3 1.3 0.6 3.3 6.6 11.8 0.3 1.8 0.3 3.6 2.4 1.4 2.1 5.6 5.0 3.1 0.4 6.2 1.4 4.9 5.5 4.5 3.3 4.0 4.1 5.0 5.7 2.4 3.3 4.5 3.3 4.1 4.3 4.8 4.4 3.9 4.6 3.9 3.2 3.4 5.7 4.5 2.6 1.9 3.1 3.8 3.0 4.0 10.0 7.1 7.6 8.1 16.9
nan 3.1 6.6 5.8 5.3 16.7 3.5 7.5 0.7 1.3 1.6 3.2 3.4 4.4 0.8 2.4 1.1 4.9 6.0 5.3 5.3 2.7 2.7 3.7 2.9 3.1 2.3 1.1 3.1 3.9 5.1 3.0 2.6 2.8 3.6 2.0 2.2 2.3 1.6 1.9 2.8 2.7 2.1 1.6 2.4 4.1 4.1 10.7 7.1 5.7 13.1 23.3 28.7 24.7
14.8 22.6 10.2 36.1 5.5 12.4 9.8 8.9 4.4 2.8 7.0 6.2 4.7 5.8 11.1 1.6 7.9 7.1 3.3 5.0 4.3 5.7 4.4 3.1 1.8 2.3 2.5 4.6 3.9 3.5 1.1 1.2 1.8 1.9 2.6 1.9 2.5 2.8 2.0 1.4 1.6 1.6 2.0 8.7 11.1 14.6 14.4 14.3 15.6 15.1 9.9 27.1 9.7 12.7
36.8 19.1 16.6 7.4 14.7 7.8 5.0 10.0 10.9 12.5 6.9 8.5 8.5 3.9 5.4 8.0 7.8 10.2 3.2 6.9 8.9 5.7 18.4 13.7 7.3 2.8 2.0 1.5 1.9 1.7 1.9 1.6 1.2 1.7 1.9 1.4 1.7 5.6 6.9 5.8 5.0 4.0 3.2 6.9 12.0 19.9 14.6 16.3 18.7 10.3 18.5 10.9 9.0 25.2
33.6 22.2 2.4 0.6 1.1 0.8 12.0 10.2 2.8 7.4 9.3 12.5 7.1 9.0 9.7 16.7 14.4 5.0 3.1 3.1 2.6 5.1 3.2 2.9 1.9 1.6 1.8 1.6 1.3 1.7 1.7 2.0 2.1 1.7 1.7 1.4 1.5 1.5 5.1 11.6 7.0 4.7 3.7 6.7 11.0 22.6 23.0 21.9 23.3 16.3 19.8 20.9 23.6 26.2
6.1 3.4 14.3 8.4 11.5 3.2 10.6 7.8 9.1 10.8 6.8 2.8 6.3 12.2 14.2 13.7 7.9 5.9 4.0 4.4 5.3 2.3 2.0 2.2 2.0 1.5 1.8 2.3 3.1 4.6 5.6 5.3 6.4 4.9 3.9 3.4 2.8 6.4 6.4 6.8 5.9 7.4 8.0 15.3 18.7 19.9 16.1 24.2 27.6 27.4 25.1 26.1 29.9 26.4
8.0 3.8 4.6 14.3 6.9 6.5 9.4 11.1 9.2 3.6 1.7 5.1 18.3 9.0 6.9 3.1 9.3 6.1 5.5 5.5 5.5 4.8 5.8 7.4 9.8 12.3 6.8 5.5 8.6 6.6 8.7 10.9 10.1 11.1 14.7 15.0 14.1 12.3 8.5 10.2 11.2 14.6 13.4 14.1 7.8 10.3 13.4 19.8 23.3 27.2 25.7 30.9 30.7 33.7
7.1 3.8 7.8 9.2 11.2 8.1 14.5 9.6 12.0 9.9 1.2 4.1 2.3 2.5 2.9 7.2 9.9 6.4 7.3 7.4 10.0 21.4 30.4 24.9 23.0 22.5 33.5 23.7 20.0 14.1 15.5 19.0 15.9 22.9 25.8 19.5 16.0 15.3 17.5 21.7 21.2 20.0 19.3 34.1 22.7 11.7 9.0 23.3 18.5 34.3 29.5 27.5 30.4 34.8
3.4 9.1 11.3 6.6 11.8 18.2 17.9 18.8 17.6 10.8 11.2 17.5 18.1 20.4 14.7 10.8 12.3 8.6 7.1 10.8 11.0 34.8 37.5 41.4 39.1 38.2 34.8 23.1 34.9 31.8 22.9 30.1 13.8 10.7 10.8 15.9 18.6 23.9 24.9 22.2 23.3 25.9 26.8 25.7 32.1 27.4 26.1 30.2 29.9 30.0 23.3 20.3 22.7 24.3
13.2 20.7 22.4 12.2 14.6 25.4 13.5 32.0 24.6 23.0 25.9 27.0 30.0 27.0 32.1 28.5 17.7 13.6 17.0 25.7 30.1 34.5 9.0 30.2 43.5 21.7 19.1 17.2 26.5 21.2 10.0 14.3 15.0 15.0 14.8 19.4 22.9 25.3 16.4 13.9 29.3 29.8 25.1 27.6 24.0 25.3 20.9 28.7 28.2 31.0 27.5 23.4 21.9 20.3
29.0 21.8 15.9 15.3 27.9 15.7 19.2 23.7 6.6 21.9 22.6 26.0 29.6 26.5 29.1 25.0 15.8 22.0 10.9 23.8 29.4 31.7 27.1 35.3 36.7 41.5 21.1 18.0 17.0 18.5 13.3 18.5 18.1 10.4 9.1 9.1 9.1 10.6 19.5 27.7 31.8 25.7 16.9 22.9 26.0 24.5 20.3 15.5 19.6 20.1 22.1 25.1 23.2 21.5
Water_Equivalent
nan nan nan nan nan nan nan nan nan nan nan nan nan nan nan nan nan 0.00 0.00 0.00 0.00 0.03 0.00 0.00 0.00 0.00 0.00 0.00 0.02 0.00 0.04 0.03 0.06 0.10 0.16 0.13 0.44 0.07 0.03 0.00 0.00 0.02 0.17 0.53 0.17 0.22 0.35 0.00 0.00 0.00 0.01 0.00 0.00 0.00
nan nan nan nan nan nan nan nan nan nan nan nan nan nan nan nan nan nan 0.00 0.00 0.00 0.00 0.00 0.00 0.00 0.00 0.00 0.00 0.00 0.00 0.00 0.00 0.00 0.01 0.12 0.12 0.43 0.85 0.01 0.16 0.00 0.10 0.02 0.06 0.01 0.07 0.00 0.00 0.00 0.00 0.00 0.00 0.00 0.00
nan nan nan nan nan nan nan nan nan nan nan nan nan nan nan nan nan nan 0.00 0.00 0.00 0.01 0.00 0.00 0.00 0.00 0.00 0.00 0.00 0.00 0.00 0.00 0.00 0.00 0.00 0.07 0.06 0.04 0.40 0.08 0.02 0.00 0.00 0.03 0.01 0.00 0.00 0.00 0.00 0.00 0.00 0.00 0.00 0.00
nan nan nan nan nan nan nan nan nan nan nan nan nan nan nan nan nan nan 0.00 0.00 0.00 0.00 0.38 0.02 0.00 0.00 0.00 0.00 0.00 0.00 0.00 0.00 0.00 0.00 0.08 0.16 0.35 0.00 0.12 0.05 0.04 0.00 0.00 0.00 0.00 0.00 0.00 0.00 0.00 0.00 0.00 0.00 0.00 0.00
nan nan nan nan nan nan nan nan nan nan nan nan nan nan nan nan nan nan 0.00 0.00 0.00 0.02 0.16 0.04 0.00 0.00 0.00 0.00 0.00 0.00 0.00 0.00 0.00 0.06 0.53 0.18 0.01 0.07 0.07 0.05 0.07 0.00 0.00 0.06 0.05 0.00 0.00 0.00 0.00 0.00 0.00 0.00 0.00 0.00
nan nan nan nan nan nan nan nan nan nan nan nan nan nan nan nan nan 0.00 0.00 0.00 0.00 0.00 0.02 0.21 0.00 0.00 0.00 0.00 0.00 0.00 0.00 0.00 0.00 0.01 0.18 0.02 0.00 0.01 0.70 0.09 0.00 0.00 0.00 0.00 0.00 0.00 0.00 0.00 0.00 0.00 0.00 0.00 0.00 0.00
nan nan nan nan nan nan nan nan nan nan nan nan nan nan nan nan 0.00 0.00 0.00 0.00 nan 0.00 0.02 0.18 0.11 0.00 0.00 0.00 0.00 0.00 0.00 0.00 0.00 0.01 0.09 0.03 0.02 0.00 0.26 0.14 0.00 0.00 0.00 0.00 0.00 0.00 0.00 0.00 0.00 0.00 0.00 0.00 0.00 0.00
nan nan nan nan nan nan nan nan nan nan nan nan nan nan nan nan nan 0.00 0.00 nan nan 0.00 0.01 0.30 0.30 0.11 0.00 0.06 0.14 0.00 0.03 0.03 0.01 0.00 0.08 0.09 0.03 0.12 0.16 0.00 0.00 0.00 0.00 0.00 0.00 0.00 0.00 0.00 0.00 0.00 0.00 0.00 0.00 0.00
nan nan nan nan nan nan nan nan nan nan nan nan nan nan 0.00 0.00 0.06 0.00 nan nan 0.00 0.00 0.08 1.09 0.44 1.02 0.00 0.02 0.11 0.08 0.01 0.23 0.01 0.23 0.11 0.05 0.13 0.38 0.15 0.06 0.00 0.00 0.00 0.00 0.00 0.00 0.00 0.00 0.00 0.00 0.00 0.00 0.00 0.00
nan nan nan nan nan nan nan nan nan nan nan nan 0.00 0.00 0.11 0.03 nan nan 0.00 0.07 0.05 0.04 0.04 0.32 0.04 0.37 0.01 0.15 0.23 0.19 0.17 0.29 0.43 0.26 0.00 0.33 0.53 0.13 0.11 0.04 0.00 0.00 0.00 0.00 0.00 0.00 0.00 0.00 0.00 0.00 0.00 0.00 0.00 0.00
nan nan nan nan nan nan nan nan nan nan nan 0.00 0.06 0.08 0.00 nan 0.00 0.03 0.18 0.19 0.07 0.21 0.04 0.07 0.06 0.15 0.03 0.41 0.50 0.19 0.90 0.47 0.78 0.16 0.38 0.35 0.23 0.16 0.16 0.10 0.06 0.00 0.00 0.00 0.00 0.00 0.00 0.00 0.00 0.00 0.00 0.00 0.00 0.00
nan nan nan nan nan nan nan nan nan 0.00 0.00 0.00 0.01 0.00 0.00 0.00 0.14 0.66 1.06 0.54 0.14 0.09 0.13 0.23 0.14 0.04 0.19 0.13 0.13 0.45 0.55 0.88 0.90 0.07 1.24 0.66 0.17 0.01 0.00 0.00 0.03 0.07 0.00 0.00 0.00 0.00 0.00 0.00 0.00 0.00 0.00 0.00 0.00 0.01
nan nan nan nan nan nan nan nan nan nan nan 0.00 0.03 0.04 0.09 1.20 4.77 1.86 1.19 0.79 1.67 0.35 0.64 0.49 1.88 0.17 0.16 0.06 0.58 0.45 1.79 1.27 0.14 2.08 0.57 0.44 0.06 0.02 0.02 0.01 0.01 0.00 0.00 0.00 0.01 0.00 0.03 0.07 0.05 0.08 0.21 0.32 0.56 0.62
nan nan nan nan nan nan nan nan nan 0.00 0.00 0.12 0.51 4.77 2.47 2.30 1.06 0.98 0.53 0.65 0.75 0.72 0.48 0.25 0.55 0.36 0.59 0.76 0.90 2.00 0.77 0.51 1.71 2.02 0.84 0.27 0.12 0.11 0.08 0.10 0.07 0.16 0.24 0.25 0.43 0.51 0.50 0.50 0.75 1.03 1.27 1.35 1.00 0.63
nan nan nan nan nan nan nan nan nan 0.00 0.02 0.58 0.56 3.39 1.62 0.97 0.92 1.06 1.05 0.78 0.43 0.30 0.32 0.44 0.41 0.08 1.11 1.90 1.06 0.87 1.80 1.72 0.85 0.93 0.64 0.44 0.19 0.12 0.17 0.18 0.18 0.25 0.52 0.52 0.50 0.55 0.83 0.66 0.44 0.51 0.58 0.50 0.34 0.77
nan nan 0.00 nan nan nan nan nan 0.00 0.00 0.26 0.40 0.44 1.15 0.95 1.80 3.04 3.14 2.25 1.96 0.27 0.40 0.31 0.39 0.89 1.31 1.55 1.15 0.81 1.15 0.55 0.67 1.10 0.68 0.44 0.25 0.25 0.25 0.25 0.28 0.39 0.43 0.46 0.46 0.41 0.36 0.41 0.48 0.43 0.32 0.28 0.31 0.98 0.85
nan 0.00 nan nan nan nan nan 0.00 0.07 0.08 0.56 0.34 2.35 1.20 1.63 1.66 2.20 2.00 1.41 0.72 0.22 1.08 2.60 0.71 0.99 0.70 0.40 0.88 0.41 0.43 1.78 1.08 0.83 0.55 0.43 0.24 0.28 0.37 0.40 0.43 0.71 0.53 0.43 0.35 0.31 0.24 0.24 0.20 0.16 0.09 0.17 0.21 0.10 0.11
0.00 0.00 nan nan nan nan 0.00 0.02 0.22 0.26 0.34 0.80 2.06 1.84 1.25 1.56 1.89 1.67 1.09 0.55 0.49 0.48 0.46 0.43 0.21 0.48 1.86 0.70 1.08 0.87 0.75 0.68 0.54 0.71 0.72 0.55 0.48 0.53 0.54 0.60 0.58 0.43 0.33 0.39 0.35 0.38 0.32 0.35 0.16 0.31 0.12 0.09 0.07 0.07
0.00 0.00 nan nan 0.00 0.06 0.19 0.15 0.05 0.45 1.09 0.81 0.81 0.72 0.82 1.43 0.89 0.73 1.12 0.78 0.44 0.22 0.46 0.70 1.17 0.91 1.25 0.76 1.23 1.14 1.21 0.78 0.74 0.89 0.82 0.72 0.67 0.67 0.75 0.68 0.55 0.46 0.34 0.38 0.28 0.34 0.30 0.18 0.23 0.20 0.19 0.16 0.28 0.28
nan nan nan nan nan 0.11 0.03 0.37 0.06 0.10 0.66 0.85 0.65 0.59 0.57 0.82 0.77 1.94 1.47 0.51 0.28 0.45 0.71 0.79 1.05 1.17 1.00 0.97 0.92 0.93 0.97 0.73 0.53 0.55 0.72 0.79 0.86 0.50 0.63 0.48 0.53 0.43 0.34 0.24 0.34 0.23 0.26 0.22 0.18 0.21 0.21 0.22 0.57 0.69
nan nan nan 0.00 0.09 0.00 0.13 0.18 0.09 0.14 0.20 0.38 0.29 0.15 0.82 0.44 0.81 1.27 0.85 0.18 1.65 0.83 0.80 0.95 1.24 0.83 0.83 0.92 0.69 0.60 0.60 0.46 0.52 0.39 0.55 0.59 0.74 0.49 0.47 0.57 0.43 0.40 0.34 0.40 0.80 0.55 0.40 0.49 0.28 0.26 2.19 2.60 1.65 1.26
0.00 nan 0.13 0.10 0.25 0.17 0.39 0.08 0.13 0.17 0.27 0.32 0.27 0.20 1.11 2.75 2.54 1.46 0.27 0.99 0.61 0.68 0.58 0.65 0.66 0.59 0.49 0.51 0.71 0.52 0.69 0.35 0.37 0.34 0.34 0.24 0.46 0.44 0.49 0.56 0.41 0.66 0.55 0.81 0.49 1.00 0.56 0.30 0.56 0.71 1.58 2.56 1.00 1.13
nan 0.10 0.40 0.20 0.82 1.47 2.47 0.09 0.45 0.08 0.83 0.59 0.37 0.49 1.17 1.06 0.64 0.11 1.20 0.20 0.57 0.62 0.52 0.38 0.43 0.43 0.49 0.55 0.24 0.34 0.46 0.33 0.43 0.47 0.55 0.47 0.41 0.57 0.52 0.41 0.47 1.01 0.76 0.36 0.28 0.56 0.71 0.85 0.89 2.29 1.62 1.63 1.63 3.42
nan 0.81 1.50 1.33 1.25 2.92 0.91 1.65 0.18 0.33 0.42 0.75 0.77 0.88 0.15 0.52 0.27 0.96 0.98 0.79 0.58 0.33 0.33 0.38 0.39 0.36 0.26 0.11 0.30 0.37 0.51 0.32 0.28 0.32 0.43 0.30 0.32 0.30 0.25 0.27 0.46 0.47 0.34 0.26 0.47 0.86 0.84 2.34 2.10 1.09 2.60 4.67 5.56 4.57
2.11 3.32 2.31 4.03 1.34 2.53 2.01 1.91 0.93 0.61 1.20 1.27 0.88 1.09 2.05 0.39 1.32 1.18 0.50 0.65 0.60 0.81 0.61 0.46 0.25 0.28 0.28 0.52 0.42 0.35 0.12 0.16 0.26 0.26 0.35 0.31 0.44 0.49 0.32 0.22 0.25 0.27 0.43 1.82 2.28 3.05 3.05 3.00 3.17 2.98 1.81 5.19 1.69 2.17
4.31 3.92 3.36 1.61 2.64 1.55 0.93 1.58 1.67 2.04 1.20 1.37 1.50 0.78 1.24 1.55 1.23 1.24 0.40 0.95 1.39 0.79 3.12 2.28 1.20 0.41 0.24 0.19 0.22 0.21 0.23 0.24 0.23 0.28 0.27 0.22 0.28 0.97 1.18 1.00 0.85 0.71 0.60 1.41 2.41 3.89 2.84 3.15 3.55 1.81 3.30 1.97 2.45 4.36
3.81 3.64 0.53 0.14 0.27 0.18 2.12 2.02 0.64 1.39 1.41 1.68 1.23 1.60 1.84 2.24 1.94 0.59 0.38 0.38 0.33 0.67 0.43 0.42 0.32 0.25 0.23 0.20 0.18 0.28 0.28 0.34 0.36 0.27 0.30 0.25 0.26 0.27 0.88 1.91 1.08 0.74 0.67 1.38 2.25 4.51 4.40 4.10 4.36 2.87 3.49 3.79 4.15 4.50
1.13 0.70 1.66 1.74 2.13 0.67 1.64 1.23 1.41 1.51 1.13 0.47 1.06 1.61 2.02 1.80 0.90 0.71 0.44 0.53 0.80 0.35 0.33 0.38 0.34 0.25 0.28 0.34 0.44 0.67 0.87 0.81 1.07 0.85 0.68 0.61 0.51 1.06 1.03 1.16 1.04 2.44 1.49 2.93 3.71 3.93 3.08 4.64 4.98 4.89 4.21 4.24 4.59 4.25
1.27 0.81 0.94 1.57 1.02 1.11 1.35 1.59 1.32 0.57 0.27 0.83 2.81 1.26 1.01 0.40 1.17 0.74 0.61 0.67 0.84 0.77 0.85 1.07 1.42 2.00 1.07 0.86 1.29 1.00 1.31 1.59 1.42 1.43 2.02 2.01 2.05 1.77 1.25 1.54 1.69 2.23 2.14 2.30 2.56 2.63 2.59 3.29 3.86 4.32 4.47 4.89 4.64 5.02
1.11 0.88 1.41 1.37 1.21 1.04 2.33 1.63 2.13 1.79 0.22 0.75 0.44 0.38 0.39 0.89 1.13 0.81 1.00 1.01 1.38 3.23 4.90 3.85 3.55 3.42 4.84 3.40 2.79 2.03 2.36 3.07 2.48 3.41 3.68 2.66 2.22 2.15 2.54 3.23 3.21 3.11 3.07 5.64 3.23 1.51 2.46 3.35 3.74 4.83 4.11 3.71 4.07 4.32
0.75 1.97 2.16 1.28 1.73 3.24 3.07 3.61 3.61 1.93 2.07 3.19 3.31 3.54 2.24 1.45 1.61 1.11 0.92 1.40 1.51 5.65 6.13 6.37 6.12 6.40 5.00 3.07 5.12 4.55 2.96 4.76 1.92 1.43 1.44 2.21 2.64 3.59 3.84 3.34 3.55 4.01 4.18 3.83 4.73 3.35 3.07 3.80 4.11 4.11 2.92 2.57 2.57 2.70
2.45 3.69 2.84 1.53 2.35 4.60 2.51 5.66 4.49 3.99 4.94 4.56 5.11 4.41 4.91 3.96 2.20 1.63 1.85 3.10 3.97 4.77 2.61 3.91 5.92 2.65 2.54 2.32 3.98 3.10 3.09 1.85 1.90 1.87 1.99 2.63 3.30 3.78 2.40 2.00 4.59 4.67 3.77 4.05 3.37 3.43 2.78 3.52 3.33 3.71 3.14 2.73 2.46 2.19
5.53 3.99 2.62 2.31 4.74 2.80 3.21 4.14 1.19 3.67 3.28 3.75 4.31 3.85 3.98 3.19 1.86 2.40 1.13 2.79 3.53 3.86 3.18 4.43 4.70 5.66 2.85 2.42 2.20 2.45 2.90 2.14 2.66 3.44 3.02 3.02 3.00 2.88 2.70 4.05 4.87 3.74 2.30 3.16 3.53 3.14 2.69 2.00 2.12 2.38 2.43 2.76 2.50 2.28
SL_Ratio
nan nan nan nan nan nan nan nan nan nan nan nan nan nan nan nan nan nan nan nan 5.0 4.7 nan nan nan nan nan nan 2.4 nan 2.6 2.5 2.5 2.6 2.8 3.3 3.2 2.9 3.2 nan nan 3.3 3.5 3.5 3.3 3.6 3.9 nan nan 3.3 2.8 nan nan nan
nan nan nan nan nan nan nan nan nan nan nan nan nan nan nan nan nan nan nan nan nan nan 0.0 nan nan nan nan nan nan nan 3.3 nan nan 2.5 2.5 2.6 2.9 2.7 3.0 3.5 nan 3.3 3.2 3.0 3.2 3.3 nan nan nan nan nan nan nan nan
nan nan nan nan nan nan nan nan nan nan nan nan nan nan nan nan nan nan nan nan nan 3.0 nan nan nan nan nan nan nan nan 2.3 nan nan nan nan 2.5 3.2 2.6 2.9 2.9 2.7 nan nan 2.6 2.5 nan nan nan nan nan nan nan nan nan
nan nan nan nan nan nan nan nan nan nan nan nan nan nan nan nan nan nan nan nan nan 2.2 2.6 2.5 nan nan nan nan nan nan nan nan nan nan 2.5 2.5 2.8 nan 2.8 2.5 2.5 nan nan nan nan nan nan nan nan nan nan nan nan nan
nan nan nan nan nan nan nan nan nan nan nan nan nan nan nan nan nan nan nan nan nan 2.5 2.9 2.5 nan nan nan nan nan nan nan nan nan 2.6 2.5 2.5 2.3 2.7 2.5 2.5 2.5 nan nan 2.5 2.5 nan nan nan nan nan nan nan nan nan
nan nan nan nan nan nan nan nan nan nan nan nan nan nan nan nan nan nan nan nan nan nan 2.5 2.6 5.0 nan nan nan nan nan nan nan nan 2.5 2.5 2.6 nan 2.6 2.5 2.5 nan nan nan nan nan nan nan nan nan nan nan nan nan nan
nan nan nan nan nan nan nan nan nan nan nan nan nan nan nan nan nan nan 4.0 nan nan nan 2.5 2.7 2.7 nan nan nan nan nan nan nan nan 2.4 2.5 2.5 2.5 1.7 2.9 2.9 nan nan nan nan nan nan nan nan nan nan nan nan nan nan
nan nan nan nan nan nan nan nan nan nan nan nan nan nan nan nan nan nan nan nan nan nan 2.4 2.7 2.6 2.5 nan 2.5 2.5 nan 2.5 2.4 2.5 nan 2.5 2.5 2.5 2.5 2.8 nan nan nan nan nan nan nan nan nan nan nan nan nan nan nan
nan nan nan nan nan nan nan nan nan nan nan nan nan nan nan nan 2.6 nan nan nan nan nan 2.6 2.5 2.8 3.0 nan 2.5 2.5 2.5 2.4 2.6 2.5 2.6 2.5 2.5 2.5 3.5 3.6 2.7 2.7 nan nan nan nan nan nan nan nan nan nan nan nan 0.0
nan nan nan nan nan nan nan nan nan nan nan nan nan 3.3 2.5 2.6 nan nan 2.0 2.5 2.5 2.4 2.5 2.5 2.6 2.8 2.4 2.5 2.5 2.7 2.7 2.5 2.7 2.5 2.7 2.6 3.3 3.1 3.5 3.6 0.0 nan nan nan nan nan nan nan nan nan nan nan nan nan
nan nan nan nan nan nan nan nan nan nan nan 3.3 2.5 2.5 nan nan nan 2.5 3.0 3.0 2.6 2.6 2.5 2.5 2.5 2.9 2.5 2.5 2.7 2.5 2.6 2.5 3.3 3.0 2.8 3.1 4.2 5.7 4.9 5.4 4.0 nan nan nan nan nan nan nan nan nan nan nan nan nan
nan nan nan nan nan nan nan nan nan nan nan nan 2.3 nan 2.0 nan 2.8 3.4 3.0 2.9 2.7 2.9 2.5 2.5 2.5 2.5 2.5 2.5 2.5 3.2 3.5 3.5 4.1 2.8 2.9 3.9 4.8 7.1 10.0 6.7 4.9 2.8 6.7 nan nan nan nan nan nan 10.0 10.0 6.7 4.6 4.5
nan nan nan nan nan nan nan nan nan nan nan nan 2.5 2.5 2.5 2.8 6.8 3.7 4.1 3.5 3.2 2.8 2.5 2.5 2.5 2.5 2.5 2.5 2.5 2.9 3.6 4.0 2.7 3.6 5.8 5.9 6.9 6.8 6.8 6.5 7.5 7.3 7.1 5.0 5.5 5.0 3.7 4.7 4.8 5.2 6.4 6.8 6.5 7.5
nan nan nan nan nan nan nan nan nan nan nan 2.7 2.6 7.7 4.1 3.9 4.5 5.0 4.3 3.5 2.8 2.5 2.6 2.5 2.5 2.5 2.5 2.8 3.2 3.9 3.2 3.2 4.4 4.5 5.9 5.4 6.1 6.9 6.7 6.7 6.3 6.7 5.3 5.8 6.1 5.9 6.2 6.5 7.0 6.2 6.0 6.2 7.0 8.1
nan nan nan nan nan nan nan nan nan nan 2.5 4.4 4.0 8.0 4.9 4.4 4.0 3.5 2.9 2.7 2.7 2.6 2.7 2.6 2.6 2.6 3.2 3.6 4.0 4.3 4.5 4.7 5.1 5.3 6.0 5.0 6.5 6.7 6.8 6.7 6.5 6.0 5.8 6.2 6.9 7.4 6.9 7.2 7.7 8.1 7.6 7.8 7.8 6.8
nan nan nan nan nan nan nan nan nan nan 3.9 4.6 4.7 4.7 4.1 4.0 4.2 3.5 3.2 3.1 3.0 2.8 2.7 3.5 4.2 4.2 4.5 4.1 4.5 5.3 4.7 5.6 5.5 5.2 5.1 5.7 6.9 6.4 6.5 6.6 6.6 6.5 6.8 7.2 7.4 7.6 7.6 7.3 7.0 8.5 8.0 7.4 6.2 5.8
nan 2.5 nan nan nan nan nan nan 2.5 4.9 4.1 4.4 5.2 4.5 4.8 4.5 4.8 4.2 3.9 4.4 4.6 3.6 3.5 4.0 4.9 6.0 4.4 4.9 5.5 5.3 5.5 6.2 6.2 6.8 7.0 7.0 6.9 7.0 6.8 6.7 6.4 7.0 7.3 7.5 7.8 7.7 7.9 7.8 7.3 7.1 7.4 9.1 8.4 7.8
2.0 nan nan nan nan nan nan 2.5 3.3 3.8 5.5 6.0 5.8 5.6 5.5 5.5 5.1 4.3 4.4 5.1 3.9 4.9 4.8 6.2 4.5 5.3 5.0 5.9 6.1 6.4 6.7 6.0 6.2 6.4 7.1 7.4 7.2 6.8 6.9 7.3 7.2 7.4 8.0 8.0 7.9 7.8 7.9 7.2 8.2 7.7 8.7 8.5 6.9 6.4
nan nan nan nan nan 2.6 3.4 3.6 3.0 5.6 6.3 6.0 6.3 6.0 6.0 6.0 6.1 6.5 4.9 4.8 5.3 4.7 5.0 5.9 5.9 7.2 6.9 7.1 6.5 6.3 6.2 6.4 7.5 7.8 7.7 7.8 7.8 8.1 8.1 8.1 8.3 8.7 8.7 8.9 8.7 8.2 8.2 8.7 7.9 7.3 6.8 5.8 6.0 5.4
nan nan nan nan nan 3.0 3.8 3.9 3.2 4.2 5.7 6.4 5.6 5.9 6.0 6.8 5.2 4.1 3.8 4.2 4.5 4.9 5.5 6.2 8.0 8.5 8.6 8.1 7.7 7.4 7.2 6.1 7.3 7.8 8.4 8.4 8.2 8.8 8.9 9.0 8.8 9.4 8.9 9.6 8.3 5.1 7.4 7.7 7.6 6.5 5.9 5.5 5.4 5.7
nan nan nan nan 2.8 3.3 3.3 3.6 3.6 3.6 4.5 5.8 4.9 3.8 5.7 3.9 4.5 4.5 4.3 3.8 4.4 6.1 8.2 8.4 7.4 8.5 8.2 7.9 7.8 7.8 8.3 8.3 8.6 7.3 8.4 9.4 9.2 8.9 9.2 9.1 8.7 8.8 8.4 8.6 6.2 7.5 5.8 7.1 7.3 6.0 4.4 4.3 4.4 4.5
nan nan 2.6 2.6 3.2 3.4 3.9 3.3 3.7 4.1 4.0 4.2 4.0 3.9 4.5 4.8 4.9 4.8 4.0 4.7 7.3 8.9 9.2 8.5 9.2 9.0 9.1 9.7 9.4 9.0 9.0 9.7 9.9 8.5 5.1 7.5 9.7 9.1 9.6 9.6 8.4 7.9 7.7 6.5 6.9 5.3 5.7 6.2 5.1 4.7 4.4 4.1 4.8 5.0
nan 3.1 3.2 3.2 4.0 4.5 4.8 3.4 4.0 3.9 4.3 4.1 3.9 4.3 4.8 4.7 4.8 3.7 5.2 7.0 8.6 8.9 8.6 8.6 9.2 9.6 10.1 10.4 10.0 9.9 9.8 9.9 9.5 9.3 8.8 9.4 9.5 8.0 7.6 7.8 7.1 5.6 5.9 7.3 6.6 5.5 5.3 3.6 4.5 4.4 4.4 4.7 4.9 5.0
nan 3.8 4.4 4.4 4.3 5.7 3.8 4.6 3.8 4.0 3.9 4.2 4.3 5.0 5.2 4.6 4.2 5.1 6.1 6.8 9.2 8.2 8.1 9.7 7.3 8.7 8.7 10.6 10.2 10.6 10.0 9.4 9.2 8.6 8.3 6.7 6.8 7.8 6.6 6.9 6.1 5.8 6.2 6.2 5.1 4.7 4.9 4.6 3.4 5.2 5.1 5.0 5.2 5.4
7.0 6.8 4.4 9.0 4.1 4.9 4.9 4.6 4.8 4.6 5.8 4.9 5.3 5.3 5.4 4.2 6.0 6.1 6.5 7.7 7.1 7.0 7.3 6.9 7.1 8.2 8.8 8.8 9.3 10.0 9.4 7.3 7.1 7.4 7.3 6.1 5.7 5.7 6.2 6.3 6.3 5.9 4.7 4.8 4.9 4.8 4.7 4.8 4.9 5.1 5.5 5.2 5.7 5.8
8.5 4.9 5.0 4.6 5.6 5.0 5.3 6.4 6.5 6.1 5.7 6.2 5.7 5.0 4.4 5.2 6.3 8.2 8.0 7.3 6.4 7.2 5.9 6.0 6.1 6.8 8.3 8.1 8.6 8.0 8.2 6.6 5.5 6.0 7.1 6.3 6.1 5.7 5.8 5.8 5.9 5.6 5.4 4.9 5.0 5.1 5.2 5.2 5.3 5.7 5.6 5.5 3.7 5.8
8.8 6.1 4.5 4.0 4.2 4.4 5.7 5.1 4.4 5.3 6.6 7.4 5.7 5.6 5.3 7.4 7.4 8.4 8.1 8.1 8.0 7.6 7.6 7.0 6.1 6.6 7.6 8.1 7.1 6.1 5.8 5.8 5.9 6.3 5.7 5.7 5.8 5.8 5.8 6.1 6.4 6.4 5.5 4.9 4.9 5.0 5.2 5.3 5.3 5.7 5.7 5.5 5.7 5.8
5.4 4.9 8.6 4.8 5.4 4.8 6.5 6.4 6.5 7.2 6.0 5.9 6.0 7.6 7.1 7.6 8.8 8.4 9.1 8.3 6.6 6.4 6.1 5.7 5.7 6.0 6.3 6.8 7.0 6.9 6.5 6.5 6.0 5.8 5.7 5.7 5.5 6.0 6.2 5.9 5.7 3.0 5.4 5.2 5.0 5.0 5.2 5.2 5.5 5.6 6.0 6.2 6.5 6.2
6.3 4.7 4.9 9.1 6.8 5.9 6.9 7.0 7.0 6.2 6.2 6.1 6.5 7.1 6.8 7.8 8.0 8.2 9.1 8.2 6.5 6.2 6.9 6.9 6.9 6.1 6.3 6.4 6.6 6.5 6.7 6.9 7.1 7.8 7.3 7.5 6.9 7.0 6.8 6.6 6.6 6.6 6.3 6.1 3.0 3.9 5.2 6.0 6.1 6.3 5.8 6.3 6.6 6.7
6.4 4.3 5.5 6.7 9.3 7.8 6.2 5.9 5.7 5.5 5.6 5.5 5.3 6.4 7.3 8.2 8.8 7.8 7.3 7.4 7.2 6.6 6.2 6.5 6.5 6.6 6.9 7.0 7.1 6.9 6.6 6.2 6.4 6.7 7.0 7.3 7.2 7.1 6.9 6.7 6.6 6.4 6.3 6.1 7.0 7.7 3.7 6.9 5.0 7.1 7.2 7.4 7.5 8.1
4.5 4.6 5.2 5.1 6.8 5.6 5.8 5.2 4.9 5.6 5.4 5.5 5.5 5.8 6.6 7.4 7.7 7.8 7.7 7.7 7.3 6.2 6.1 6.5 6.4 6.0 7.0 7.5 6.8 7.0 7.7 6.3 7.2 7.5 7.5 7.2 7.1 6.6 6.5 6.6 6.6 6.5 6.4 6.7 6.8 8.2 8.5 8.0 7.3 7.3 8.0 7.9 8.8 9.0
5.4 5.6 7.9 8.0 6.2 5.5 5.4 5.7 5.5 5.8 5.2 5.9 5.9 6.1 6.5 7.2 8.1 8.4 9.2 8.3 7.6 7.2 3.4 7.7 7.3 8.2 7.5 7.4 6.7 6.8 3.2 7.7 7.9 8.0 7.5 7.4 6.9 6.7 6.8 7.0 6.4 6.4 6.7 6.8 7.1 7.4 7.5 8.1 8.5 8.4 8.8 8.6 8.9 9.2
5.2 5.5 6.1 6.6 5.9 5.6 6.0 5.7 5.6 6.0 6.9 6.9 6.9 6.9 7.3 7.8 8.5 9.2 9.7 8.5 8.3 8.2 8.5 8.0 7.8 7.3 7.4 7.4 7.7 7.6 4.6 8.7 6.8 3.0 3.0 3.0 3.0 3.7 7.2 6.8 6.5 6.9 7.3 7.2 7.4 7.8 7.6 7.8 9.3 8.4 9.1 9.1 9.3 9.4